• In Deutschland
  • Länderverzeichnis
  • Für 7 Tage
  • Wassertemperatur
  • Satellitenkarten
  • Wetterkarte
  • Widgets
  • user-avatar
    Anmelden

    Stündliche Wetter Luanda

    Heute, 21 August, Dienstag

    Zeit Temperatur Niederschläge Wind Luftdruck Luftfeuchtigkeit
    00:00 +24°C° 0 mm 3 m/S 756 mmHg 83%
    01:00 +24°C° 0 mm 3 m/S 757 mmHg 82%
    02:00 +22°C° 0 mm 3 m/S 757 mmHg 84%
    03:00 +22°C° 0 mm 3 m/S 756 mmHg 86%
    04:00 +22°C° 0 mm 3 m/S 756 mmHg 87%
    05:00 +23°C° 0 mm 2 m/S 757 mmHg 87%
    06:00 +23°C° 0 mm 2 m/S 757 mmHg 86%
    07:00 +23°C° 0 mm 2 m/S 757 mmHg 83%
    08:00 +25°C° 0 mm 2 m/S 757 mmHg 75%
    09:00 +27°C° 0 mm 2 m/S 757 mmHg 66%
    10:00 +29°C° 0 mm 2 m/S 757 mmHg 57%
    11:00 +30°C° 0 mm 3 m/S 756 mmHg 53%
    12:00 +32°C° 0 mm 4 m/S 756 mmHg 49%
    13:00 +34°C° 0 mm 4 m/S 755 mmHg 45%
    14:00 +33°C° 0 mm 5 m/S 755 mmHg 49%
    15:00 +32°C° 0 mm 5 m/S 754 mmHg 52%
    16:00 +30°C° 0 mm 6 m/S 754 mmHg 56%
    17:00 +28°C° 0 mm 6 m/S 754 mmHg 63%
    18:00 +27°C° 0 mm 5 m/S 754 mmHg 70%
    19:00 +25°C° 0 mm 5 m/S 754 mmHg 77%
    20:00 +25°C° 0 mm 5 m/S 755 mmHg 79%
    21:00 +23°C° 0 mm 5 m/S 755 mmHg 80%
    22:00 +23°C° 0 mm 4 m/S 756 mmHg 82%
    23:00 +23°C° 0 mm 4 m/S 756 mmHg 81%

    Morgen, 22 August, Mittwoch

    Zeit Temperatur Niederschläge Wind Luftdruck Luftfeuchtigkeit
    00:00 +23°C° 0 mm 4 m/S 756 mmHg 79%
    01:00 +23°C° 0 mm 4 m/S 756 mmHg 78%
    02:00 +23°C° 0,1 mm 4 m/S 755 mmHg 78%
    03:00 +23°C° 0,1 mm 4 m/S 755 mmHg 77%
    04:00 +24°C° 0,1 mm 3 m/S 755 mmHg 77%
    05:00 +24°C° 0,1 mm 3 m/S 755 mmHg 76%
    06:00 +24°C° 0,1 mm 2 m/S 755 mmHg 75%
    07:00 +24°C° 0,1 mm 2 m/S 756 mmHg 75%
    08:00 +25°C° 0 mm 2 m/S 756 mmHg 71%
    09:00 +26°C° 0 mm 2 m/S 756 mmHg 67%
    10:00 +26°C° 0 mm 2 m/S 757 mmHg 64%
    11:00 +28°C° 0 mm 2 m/S 756 mmHg 58%
    12:00 +29°C° 0 mm 3 m/S 756 mmHg 52%
    13:00 +31°C° 0 mm 3 m/S 755 mmHg 46%
    14:00 +30°C° 0 mm 4 m/S 755 mmHg 49%
    15:00 +30°C° 0 mm 4 m/S 754 mmHg 51%
    16:00 +29°C° 0 mm 5 m/S 754 mmHg 54%
    17:00 +27°C° 0 mm 5 m/S 754 mmHg 62%
    18:00 +26°C° 0 mm 4 m/S 754 mmHg 70%
    19:00 +23°C° 0 mm 4 m/S 755 mmHg 78%
    20:00 +23°C° 0 mm 4 m/S 756 mmHg 79%
    21:00 +23°C° 0 mm 4 m/S 756 mmHg 80%
    22:00 +22°C° 0 mm 3 m/S 757 mmHg 81%
    23:00 +22°C° 0 mm 3 m/S 757 mmHg 79%

    übermorgen, 23 August, Donnerstag

    Zeit Temperatur Niederschläge Wind Luftdruck Luftfeuchtigkeit
    00:00 +22°C° 0 mm 3 m/S 756 mmHg 77%
    01:00 +24°C° 0 mm 3 m/S 756 mmHg 76%
    02:00 +22°C° 0 mm 3 m/S 756 mmHg 75%
    03:00 +22°C° 0 mm 3 m/S 755 mmHg 75%
    04:00 +23°C° 0 mm 2 m/S 755 mmHg 74%
    05:00 +23°C° 0 mm 2 m/S 755 mmHg 73%
    06:00 +23°C° 0 mm 1 m/S 755 mmHg 72%
    07:00 +23°C° 0 mm 1 m/S 756 mmHg 71%
    08:00 +25°C° 0 mm 1 m/S 756 mmHg 65%
    09:00 +26°C° 0 mm 1 m/S 756 mmHg 59%
    10:00 +28°C° 0 mm 1 m/S 757 mmHg 53%
    11:00 +29°C° 0 mm 2 m/S 756 mmHg 49%
    12:00 +30°C° 0 mm 3 m/S 755 mmHg 44%
    13:00 +31°C° 0 mm 3 m/S 754 mmHg 40%
    14:00 +30°C° 0 mm 4 m/S 754 mmHg 45%
    15:00 +29°C° 0 mm 4 m/S 753 mmHg 50%
    16:00 +28°C° 0 mm 5 m/S 752 mmHg 55%
    17:00 +27°C° 0 mm 5 m/S 753 mmHg 61%
    18:00 +25°C° 0 mm 4 m/S 754 mmHg 67%
    19:00 +23°C° 0 mm 4 m/S 754 mmHg 73%
    20:00 +22°C° 0 mm 4 m/S 755 mmHg 75%
    21:00 +22°C° 0 mm 3 m/S 756 mmHg 77%
    22:00 +22°C° 0 mm 3 m/S 756 mmHg 79%
    23:00 +22°C° 0 mm 3 m/S 756 mmHg 80%

    24 August, Freitag

    Zeit Temperatur Niederschläge Wind Luftdruck Luftfeuchtigkeit
    00:00 +21°C° 0 mm 2 m/S 756 mmHg 80%
    01:00 +21°C° 0 mm 2 m/S 756 mmHg 81%
    02:00 +21°C° 0 mm 2 m/S 755 mmHg 82%
    03:00 +21°C° 0 mm 2 m/S 755 mmHg 83%
    04:00 +20°C° 0 mm 2 m/S 755 mmHg 84%
    05:00 +21°C° 0 mm 2 m/S 755 mmHg 83%
    06:00 +22°C° 0 mm 1 m/S 755 mmHg 82%
    07:00 +22°C° 0 mm 1 m/S 755 mmHg 81%
    08:00 +24°C° 0 mm 1 m/S 756 mmHg 70%
    09:00 +26°C° 0 mm 1 m/S 756 mmHg 60%
    10:00 +28°C° 0 mm 1 m/S 756 mmHg 50%
    11:00 +29°C° 0 mm 2 m/S 756 mmHg 47%
    12:00 +30°C° 0 mm 3 m/S 755 mmHg 44%
    13:00 +32°C° 0 mm 4 m/S 754 mmHg 41%
    14:00 +30°C° 0 mm 4 m/S 754 mmHg 46%
    15:00 +29°C° 0 mm 5 m/S 753 mmHg 50%
    16:00 +28°C° 0 mm 5 m/S 753 mmHg 54%
    17:00 +26°C° 0 mm 5 m/S 754 mmHg 60%
    18:00 +25°C° 0 mm 4 m/S 754 mmHg 66%
    19:00 +23°C° 0 mm 4 m/S 755 mmHg 72%
    20:00 +22°C° 0 mm 3 m/S 756 mmHg 75%
    21:00 +22°C° 0 mm 3 m/S 756 mmHg 78%
    22:00 +22°C° 0 mm 3 m/S 757 mmHg 80%
    23:00 +21°C° 0 mm 3 m/S 757 mmHg 81%

    25 August, Samstag

    Zeit Temperatur Niederschläge Wind Luftdruck Luftfeuchtigkeit
    00:00 +21°C° 0 mm 2 m/S 756 mmHg 82%
    01:00 +21°C° 0 mm 2 m/S 756 mmHg 83%
    02:00 +21°C° 0 mm 2 m/S 756 mmHg 82%
    03:00 +21°C° 0 mm 2 m/S 756 mmHg 82%
    04:00 +21°C° 0 mm 2 m/S 756 mmHg 81%
    05:00 +21°C° 0 mm 2 m/S 756 mmHg 78%
    06:00 +23°C° 0 mm 2 m/S 756 mmHg 76%
    07:00 +23°C° 0 mm 2 m/S 757 mmHg 73%
    08:00 +25°C° 0 mm 2 m/S 757 mmHg 64%
    09:00 +27°C° 0 mm 2 m/S 757 mmHg 55%
    10:00 +29°C° 0 mm 2 m/S 757 mmHg 47%
    11:00 +30°C° 0 mm 3 m/S 756 mmHg 42%
    12:00 +31°C° 0 mm 3 m/S 755 mmHg 38%
    13:00 +33°C° 0 mm 4 m/S 755 mmHg 33%
    14:00 +32°C° 0 mm 5 m/S 754 mmHg 40%
    15:00 +29°C° 0 mm 5 m/S 754 mmHg 47%
    16:00 +28°C° 0 mm 6 m/S 754 mmHg 55%
    17:00 +26°C° 0 mm 5 m/S 754 mmHg 60%
    18:00 +25°C° 0 mm 5 m/S 755 mmHg 66%
    19:00 +23°C° 0 mm 5 m/S 755 mmHg 71%
    20:00 +22°C° 0 mm 4 m/S 756 mmHg 73%
    21:00 +22°C° 0 mm 4 m/S 756 mmHg 75%
    22:00 +22°C° 0 mm 4 m/S 757 mmHg 77%
    23:00 +21°C° 0 mm 4 m/S 756 mmHg 78%

    26 August, Sonntag

    Zeit Temperatur Niederschläge Wind Luftdruck Luftfeuchtigkeit
    00:00 +21°C° 0 mm 3 m/S 756 mmHg 80%
    01:00 +21°C° 0 mm 3 m/S 756 mmHg 82%
    02:00 +21°C° 0 mm 3 m/S 755 mmHg 82%
    03:00 +21°C° 0 mm 3 m/S 755 mmHg 83%
    04:00 +20°C° 0 mm 2 m/S 755 mmHg 84%
    05:00 +21°C° 0 mm 2 m/S 756 mmHg 82%
    06:00 +21°C° 0 mm 2 m/S 756 mmHg 81%
    07:00 +22°C° 0 mm 1 m/S 757 mmHg 80%
    08:00 +24°C° 0 mm 1 m/S 757 mmHg 70%
    09:00 +25°C° 0 mm 1 m/S 757 mmHg 61%
    10:00 +27°C° 0 mm 1 m/S 757 mmHg 51%
    11:00 +28°C° 0 mm 2 m/S 756 mmHg 47%
    12:00 +29°C° 0 mm 3 m/S 755 mmHg 43%
    13:00 +32°C° 0 mm 4 m/S 754 mmHg 39%
    14:00 +30°C° 0 mm 4 m/S 754 mmHg 43%
    15:00 +29°C° 0 mm 5 m/S 754 mmHg 47%
    16:00 +28°C° 0 mm 5 m/S 753 mmHg 51%
    17:00 +26°C° 0 mm 4 m/S 754 mmHg 58%
    18:00 +25°C° 0 mm 4 m/S 755 mmHg 64%
    19:00 +22°C° 0 mm 4 m/S 756 mmHg 71%
    20:00 +22°C° 0 mm 4 m/S 756 mmHg 73%
    21:00 +22°C° 0 mm 3 m/S 756 mmHg 75%
    22:00 +21°C° 0 mm 3 m/S 757 mmHg 76%
    23:00 +21°C° 0 mm 3 m/S 756 mmHg 78%
    Mehr zeigen